Weather History for Tomahawk, WI

Change the Weather History Date:

Tuesday, December 4, 2012

  Actual Average (KRHI) Record (KRHI)
Temperature  
Mean Temperature 28 °F 21 °F  
Max Temperature 37 °F 29 °F 56 °F (1916)
Min Temperature 19 °F 13 °F -22 °F (1927)
Degree Days  
Heating Degree Days 37 44  
Month to date heating degree days 174  
Since 1 July heating degree days 2308  
Cooling Degree Days 0 0  
Month to date cooling degree days 0  
Year to date cooling degree days 261  
Moisture  
Dew Point 19 °F    
Average Humidity 66    
Maximum Humidity 81    
Minimum Humidity 44    
Precipitation  
Precipitation 0.00 in 0.05 in 0.89 in (1970)
Month to date precipitation 0.21  
Year to date precipitation 30.17  
Snow  
Snow 0.00 in - 4.00 in (1955)
Month to date snowfall  
Since 1 July snowfall  
Snow Depth -    
Sea Level Pressure  
Sea Level Pressure 30.02 in    
Wind  
Wind Speed 9 mph (WNW)    
Max Wind Speed 20 mph    
Max Gust Speed 25 mph    
Visibility 10 miles    
Events Snow    
T = Trace of Precipitation, MM = Missing Value Source: NWS Daily Summary

Daily Weather History Graph

Daily Weather History Graph

Search for Another Location

Airport:

Trip Planner

Search our weather history database for the weather conditions in past years. The results will help you decide how hot, cold, wet, or windy it might be!

Date:

Astronomy

Dec. 04, 2012 Rise Set
Actual Time 7:22 AM CST 4:16 PM CST
Civil Twilight 6:49 AM CST 4:50 PM CST
Nautical Twilight 6:11 AM CST 5:27 PM CST
Astronomical Twilight 5:36 AM CST 6:03 PM CST
Moon 10:15 PM CST (12/4) 11:06 AM CST (12/4)
Length of Visible Light 10h 01m
Length of Day
8h 53m
Waning Gibbous, 69% of the Moon is Illuminated
Dec 4
Waning Gibbous
Dec 6
Last Quarter
Dec 13
New
Dec 19
First Quarter
Dec 28
Full

Hourly Weather History & Observations

Time (CST) Temp. Windchill Dew Point Humidity Pressure Visibility Wind Dir Wind Speed Gust Speed Precip Events Conditions
12:15 AM 37.4 °F 33.8 °F 32.0 °F 81% 29.80 in 10.0 mi WSW 4.6 mph - N/A   Clear
12:35 AM 37.4 °F 31.4 °F 32.0 °F 81% 29.80 in 10.0 mi WSW 8.1 mph - N/A   Clear
12:55 AM 37.4 °F 32.8 °F 32.0 °F 81% 29.80 in 10.0 mi WSW 5.8 mph - N/A   Clear
1:15 AM 37.4 °F 33.8 °F 32.0 °F 81% 29.80 in 10.0 mi WSW 4.6 mph - N/A   Clear
1:35 AM 37.4 °F 31.4 °F 30.2 °F 75% 29.80 in 10.0 mi WSW 8.1 mph 18.4 mph N/A   Clear
1:55 AM 37.4 °F 32.1 °F 30.2 °F 75% 29.81 in 10.0 mi WSW 6.9 mph - N/A   Clear
2:15 AM 37.4 °F 30.8 °F 30.2 °F 75% 29.82 in 10.0 mi WSW 9.2 mph 17.3 mph N/A   Clear
2:35 AM 37.4 °F 31.4 °F 30.2 °F 75% 29.82 in 10.0 mi WSW 8.1 mph - N/A   Clear
2:55 AM 37.4 °F 32.1 °F 30.2 °F 75% 29.83 in 10.0 mi WSW 6.9 mph - N/A   Clear
3:15 AM 37.4 °F 31.4 °F 28.4 °F 70% 29.82 in 10.0 mi West 8.1 mph - N/A   Clear
3:35 AM 35.6 °F 29.9 °F 28.4 °F 75% 29.82 in 10.0 mi West 6.9 mph - N/A   Clear
3:55 AM 35.6 °F 29.2 °F 28.4 °F 75% 29.83 in 10.0 mi West 8.1 mph - N/A   Clear
4:15 AM 35.6 °F 29.2 °F 28.4 °F 75% 29.83 in 10.0 mi West 8.1 mph - N/A   Clear
4:35 AM 35.6 °F 29.9 °F 28.4 °F 75% 29.83 in 10.0 mi West 6.9 mph - N/A   Clear
4:55 AM 35.6 °F 28.6 °F 28.4 °F 75% 29.84 in 10.0 mi West 9.2 mph - N/A   Clear
5:15 AM 33.8 °F 26.4 °F 28.4 °F 81% 29.84 in 10.0 mi West 9.2 mph - N/A   Clear
5:35 AM 33.8 °F 24.8 °F 28.4 °F 81% 29.85 in 10.0 mi West 12.7 mph 19.6 mph N/A   Clear
5:55 AM 33.8 °F 25.3 °F 26.6 °F 75% 29.86 in 10.0 mi West 11.5 mph 17.3 mph N/A   Clear
6:15 AM 33.8 °F 26.4 °F 26.6 °F 75% 29.87 in 10.0 mi West 9.2 mph - N/A   Clear
6:35 AM 32.0 °F 24.8 °F 26.6 °F 80% 29.89 in 10.0 mi West 8.1 mph 16.1 mph N/A   Clear
6:55 AM 32.0 °F 26.4 °F 26.6 °F 80% 29.90 in 10.0 mi West 5.8 mph - N/A   Clear
7:15 AM 32.0 °F 24.8 °F 26.6 °F 80% 29.91 in 10.0 mi West 8.1 mph - N/A   Clear
7:35 AM 32.0 °F 26.4 °F 24.8 °F 75% 29.91 in 10.0 mi West 5.8 mph - N/A   Clear
7:55 AM 32.0 °F 25.6 °F 24.8 °F 75% 29.92 in 10.0 mi West 6.9 mph - N/A   Clear
8:15 AM 32.0 °F 25.6 °F 23.0 °F 69% 29.93 in 10.0 mi West 6.9 mph - N/A   Clear
8:35 AM 32.0 °F 25.6 °F 23.0 °F 69% 29.94 in 10.0 mi West 6.9 mph - N/A   Clear
8:55 AM 32.0 °F 23.0 °F 23.0 °F 69% 29.94 in 10.0 mi West 11.5 mph 17.3 mph N/A   Clear
9:15 AM 32.0 °F 22.5 °F 23.0 °F 69% 29.95 in 10.0 mi West 12.7 mph 21.9 mph N/A   Clear
9:35 AM 32.0 °F 22.1 °F 23.0 °F 69% 29.95 in 10.0 mi West 13.8 mph 20.7 mph N/A   Clear
9:55 AM 32.0 °F 21.6 °F 23.0 °F 69% 29.96 in 10.0 mi West 15.0 mph 18.4 mph N/A   Clear
10:15 AM 32.0 °F 20.8 °F 21.2 °F 64% 29.97 in 10.0 mi WNW 17.3 mph 24.2 mph N/A   Clear
10:35 AM 32.0 °F 20.8 °F 21.2 °F 64% 29.97 in 10.0 mi WNW 17.3 mph 24.2 mph N/A   Clear
10:55 AM 32.0 °F 20.8 °F 19.4 °F 60% 29.97 in 10.0 mi WNW 17.3 mph 25.3 mph N/A   Clear
11:15 AM 32.0 °F 21.6 °F 21.2 °F 64% 29.97 in 10.0 mi WNW 15.0 mph 21.9 mph N/A   Clear
11:35 AM 32.0 °F 24.2 °F 21.2 °F 64% 29.97 in 10.0 mi West 9.2 mph 18.4 mph N/A   Clear
12:15 PM 32.0 °F 23.0 °F 19.4 °F 60% 29.99 in 10.0 mi West 11.5 mph 17.3 mph N/A   Scattered Clouds
12:35 PM 32.0 °F 22.5 °F 19.4 °F 60% 30.00 in 10.0 mi West 12.7 mph 18.4 mph N/A   Clear
12:55 PM 32.0 °F 22.5 °F 19.4 °F 60% 30.01 in 10.0 mi WNW 12.7 mph 19.6 mph N/A   Clear
1:15 PM 32.0 °F 20.1 °F 17.6 °F 55% 30.02 in 10.0 mi WNW 19.6 mph 25.3 mph N/A   Clear
1:35 PM 32.0 °F 23.0 °F 15.8 °F 51% 30.03 in 10.0 mi WNW 11.5 mph - N/A   Clear
1:55 PM 32.0 °F 22.1 °F 14.0 °F 48% 30.03 in 10.0 mi West 13.8 mph 20.7 mph N/A   Clear
2:15 PM 30.2 °F 18.9 °F 14.0 °F 51% 30.04 in 10.0 mi WNW 16.1 mph 25.3 mph N/A   Clear
2:35 PM 30.2 °F 20.8 °F 12.2 °F 47% 30.05 in 10.0 mi WNW 11.5 mph 23.0 mph N/A   Clear
2:55 PM 30.2 °F 18.5 °F 10.4 °F 44% 30.07 in 10.0 mi WNW 17.3 mph 23.0 mph N/A   Clear
3:15 PM 28.4 °F 18.0 °F 10.4 °F 47% 30.08 in 10.0 mi West 12.7 mph 18.4 mph N/A   Clear
3:35 PM 28.4 °F 17.0 °F 10.4 °F 47% 30.10 in 10.0 mi WNW 15.0 mph 20.7 mph N/A   Clear
3:55 PM 26.6 °F 14.3 °F 8.6 °F 47% 30.11 in 10.0 mi WNW 16.1 mph 23.0 mph N/A   Clear
4:15 PM 26.6 °F 15.7 °F 8.6 °F 47% 30.12 in 10.0 mi WNW 12.7 mph 18.4 mph N/A   Clear
4:35 PM 26.6 °F 16.2 °F 8.6 °F 47% 30.12 in 10.0 mi WNW 11.5 mph 20.7 mph N/A   Clear
4:55 PM 26.6 °F 16.2 °F 8.6 °F 47% 30.12 in 10.0 mi WNW 11.5 mph 16.1 mph N/A   Clear
5:15 PM 24.8 °F 14.0 °F 10.4 °F 54% 30.15 in 10.0 mi WNW 11.5 mph 17.3 mph N/A   Clear
5:35 PM 24.8 °F 14.0 °F 10.4 °F 54% 30.16 in 10.0 mi WNW 11.5 mph 19.6 mph N/A   Clear
5:55 PM 23.0 °F 12.4 °F 10.4 °F 59% 30.17 in 10.0 mi WNW 10.4 mph - N/A   Clear
6:15 PM 23.0 °F 12.4 °F 10.4 °F 59% 30.18 in 10.0 mi WNW 10.4 mph 18.4 mph N/A   Clear
6:35 PM 23.0 °F 10.6 °F 10.4 °F 59% 30.19 in 10.0 mi WNW 13.8 mph 20.7 mph N/A   Clear
6:55 PM 23.0 °F 13.9 °F 10.4 °F 59% 30.19 in 10.0 mi NW 8.1 mph 21.9 mph N/A   Clear
7:15 PM 21.2 °F 10.1 °F 10.4 °F 63% 30.21 in 10.0 mi NW 10.4 mph 23.0 mph N/A   Clear
7:35 PM 21.2 °F 8.9 °F 10.4 °F 63% 30.21 in 10.0 mi NNW 12.7 mph 20.7 mph N/A   Clear
7:55 PM 21.2 °F 11.7 °F 10.4 °F 63% 30.22 in 10.0 mi NW 8.1 mph 16.1 mph N/A   Clear
8:15 PM 21.2 °F 10.1 °F 10.4 °F 63% 30.22 in 10.0 mi NW 10.4 mph 17.3 mph N/A   Clear
8:35 PM 19.4 °F 8.6 °F 10.4 °F 68% 30.23 in 10.0 mi NNW 9.2 mph - N/A   Scattered Clouds
8:55 PM 21.2 °F 11.7 °F 10.4 °F 63% 30.25 in 10.0 mi NNW 8.1 mph - N/A   Mostly Cloudy
9:15 PM 21.2 °F 10.9 °F 10.4 °F 63% 30.25 in 10.0 mi NW 9.2 mph 17.3 mph N/A   Overcast
9:35 PM 21.2 °F 10.9 °F 10.4 °F 63% 30.26 in 10.0 mi NW 9.2 mph - N/A   Mostly Cloudy
9:55 PM 21.2 °F 11.7 °F 10.4 °F 63% 30.26 in 10.0 mi NW 8.1 mph - N/A   Mostly Cloudy
10:15 PM 21.2 °F 13.6 °F 12.2 °F 68% 30.26 in 10.0 mi NNW 5.8 mph - N/A   Overcast
10:35 PM 21.2 °F 14.9 °F 12.2 °F 68% 30.27 in 10.0 mi NW 4.6 mph - N/A Snow Light Snow
10:55 PM 21.2 °F 10.9 °F 10.4 °F 63% 30.28 in 10.0 mi NNW 9.2 mph - N/A   Overcast
11:15 PM 19.4 °F 11.5 °F 10.4 °F 68% 30.28 in 10.0 mi NNW 5.8 mph - N/A   Mostly Cloudy
11:35 PM 19.4 °F 10.4 °F 10.4 °F 68% 30.29 in 10.0 mi NW 6.9 mph - N/A   Overcast
11:55 PM 19.4 °F 12.8 °F 10.4 °F 68% 30.30 in 10.0 mi WNW 4.6 mph - N/A   Mostly Cloudy